Regional Weather Roundup
Issued by NWS Kansas City/Pleasant Hill, MO

Home | Current Version | Previous Version | Graphics & Text | Print | Product List | Glossary Off
Versions: 1 2 3 4 5 6 7 8 9 10 11 12 13 14 15 16 17 18 19 20 21 22 23 24 25 26 27 28 29 30 31 32 33 34 35 36 37 38 39 40 41 42 43 44 45 46 47 48 49 50

433
ASUS43 KEAX 240210
RWREAX

WEATHER ROUNDUP FOR EASTERN KANSAS AND NORTHWEST MISSOURI
NATIONAL WEATHER SERVICE KANSAS CITY/PLEASANT HILL MO
900 PM CDT TUE AUG 23 2016

KSZ040-057-103>105-MOZ028-029-037-043-240300-
...KANSAS CITY METROPOLITAN AREA...

CITY           SKY/WX    TMP DP  RH WIND       PRES   REMARKS
K.C. INTL      PTCLDY    80  70  71 S15       29.92F
K.C. DOWNTOWN  CLEAR     82  71  69 S13G22    29.92F
LEES SUMMIT    MOCLDY    81  72  74 S13       29.96F
OLATHE - IXD   CLOUDY    80  72  76 S13       29.96F
OLATHE - OJC   CLOUDY    79  71  76 S12       29.96F
LAWRENCE       PTCLDY    80  72  76 S14       29.91F

$$

MOZ001>008-011>017-020>025-030>033-038>040-044>046-053-054-240300-
...NORTHERN AND CENTRAL MISSOURI...

CITY           SKY/WX    TMP DP  RH WIND       PRES   REMARKS
ST. JOSEPH     MOCLDY    81  72  74 S13G21    29.90F
MOSBY          CLEAR     79  72  78 SE7       29.93F
WHITEMAN AFB   PTCLDY    78  76  96 S8        29.99R
CLINTON        PTCLDY    77  73  88 S7        30.01R
SEDALIA        CLEAR     78  74  87 SE10      30.01F
WARSAW         NOT AVBL
CHILLICOTHE      N/A     79  73  82 S7        29.96S
KIRKSVILLE     CLOUDY    74  71  91 S12       30.00S

$$

MOZ041-047>049-056>058-063>065-088>090-097-240300-
...EASTERN AND SOUTHERN MISSOURI...

CITY           SKY/WX    TMP DP  RH WIND       PRES   REMARKS
ST. LOUIS INTL MOCLDY    76  69  79 SE10      30.10R
SPIRIT OF STL  MOCLDY    75  72  90 E6        30.07R
COLUMBIA       CLOUDY    75  74  96 SE8       30.03F
JEFFERSON CITY CLOUDY    75  73  93 SE6       30.02F
ROLLA          CLOUDY    76  73  91 S12       30.06S
OSAGE BEACH    PTCLDY    77  74  90 S5        30.05S
SPRINGFIELD    PTCLDY    79  70  74 S13       30.05S
BRANSON        PTCLDY    75  72  88 S6        30.10S
JOPLIN         CLEAR     80  69  69 S15       30.01R
WEST PLAINS    CLEAR     77  70  79 S6        30.13R

$$

IAZ060-094-KSZ022-034>040-054-083-096-NEZ052-066-093-240300-
...KANSAS...SOUTHEAST NEBRASKA AND IOWA...

CITY           SKY/WX    TMP DP  RH WIND       PRES   REMARKS
TOPEKA         CLOUDY    81  72  74 S13       29.89F
MANHATTAN      PTCLDY    82  72  71 S14G23    29.85S
EMPORIA        MOCLDY    78  72  81 SE12G20   29.92S
CHANUTE        CLOUDY    79  71  76 S8        29.95R
WICHITA        CLOUDY    83  71  67 S13       29.90R
OMAHA          CLOUDY    82  71  69 SE20G28   29.78F
LINCOLN        PTCLDY    83  71  67 S18       29.78S
FALLS CITY     CLOUDY    81  72  74 S13       29.86S
LAMONI         PTCLDY    75  74  96 S9G18     29.92R
DES MOINES     MOCLDY    78  72  81 S15       29.89R

$$





USA.gov is the U.S. government's official web portal to all federal, state and local government web resources and services.